NAVSTAR 78 (USA 293) (44506 NORAD) Tracking and Keplerian Element Data

This shows tracking and keplerian element data for the satellite.

Feedback or suggestion? Click here.




ElementValue
Catalog44506
NameNAVSTAR 78 (USA 293)
Epoch Orbit460
Epoch Day93.33261112
Epoch Year2020
RAAN61.3065
Inclination55.1831
Eccentricity0.0005198
Argument of Perigee196.649
Mean Anonmoly340.6428
Mean Motion2.00484571
Decay Rate-8E-08
L11 44506U 19056A 20093.33261112 -.00000008 00000-0 00000-0 0 9992
L22 44506 55.1831 61.3065 0005198 196.6490 340.6428 2.00484571 4601

Live tracking and technical data element details for NAVSTAR 78 (USA 293) (NORAD 44506). NAVSTAR 78 (USA 293) can be tracked NOW for your location showing map with azimuth and elevation plus other details from your city location.

Track the satellite on the map from your city or location and see movement details for azimuth, elevation, latitude, longitude, range, height, and movement on the map or in text.







IsCatalogInMostPopularTable: catalog: 44506, numindb: 65
Update: records affected: 1



GetName: 44506 NAVSTAR 78 (USA 293)

Hit Count: updated at: Tue, 07 Apr 2020 22:06:13 GMT